TimeEST,TemperatureF,Dew PointF,Humidity,Sea Level PressureIn,VisibilityMPH,Wind Direction,Wind SpeedMPH,Gust SpeedMPH,PrecipitationIn,Events,Conditions,WindDirDegrees,DateUTC
12:15 AM,23.9,6.6,48,30.03,10.0,WNW,10.4,19.6,N/A,,Scattered Clouds,290,2013-02-17 05:15:00
12:35 AM,23.5,5.7,47,30.03,10.0,NW,12.7,18.4,N/A,,Clear,310,2013-02-17 05:35:00
12:55 AM,23.0,5.5,47,30.03,10.0,WNW,8.1,16.1,N/A,,Clear,300,2013-02-17 05:55:00
1:15 AM,23.0,4.5,45,30.04,10.0,WNW,10.4,18.4,N/A,,Clear,290,2013-02-17 06:15:00
1:35 AM,22.3,5.0,48,30.04,10.0,WNW,15.0,21.9,N/A,,Clear,300,2013-02-17 06:35:00
1:55 AM,22.5,4.6,46,30.04,10.0,NNW,11.5,18.4,N/A,,Clear,330,2013-02-17 06:55:00
2:15 AM,22.1,4.1,46,30.05,10.0,WNW,11.5,19.6,N/A,,Clear,300,2013-02-17 07:15:00
2:35 AM,22.1,3.7,45,30.04,10.0,WNW,12.7,18.4,N/A,,Clear,300,2013-02-17 07:35:00
2:55 AM,21.7,4.6,48,30.04,10.0,WNW,10.4,16.1,N/A,,Clear,300,2013-02-17 07:55:00
3:15 AM,21.7,5.4,49,30.05,10.0,WNW,9.2,16.1,N/A,,Clear,300,2013-02-17 08:15:00
3:35 AM,21.9,5.4,49,30.05,10.0,WNW,9.2,-,N/A,,Clear,300,2013-02-17 08:35:00
3:55 AM,21.7,5.9,51,30.06,10.0,WNW,8.1,20.7,N/A,,Clear,300,2013-02-17 08:55:00
4:15 AM,21.7,5.9,51,30.05,10.0,WNW,12.7,18.4,N/A,,Clear,300,2013-02-17 09:15:00
4:35 AM,21.7,5.5,50,30.05,10.0,WNW,8.1,19.6,N/A,,Clear,300,2013-02-17 09:35:00
4:55 AM,21.2,5.7,51,30.06,10.0,WNW,10.4,16.1,N/A,,Clear,300,2013-02-17 09:55:00
5:15 AM,21.7,5.4,49,30.06,10.0,NW,10.4,16.1,N/A,,Clear,320,2013-02-17 10:15:00
5:35 AM,21.6,5.0,49,30.07,10.0,WNW,9.2,16.1,N/A,,Clear,300,2013-02-17 10:35:00
5:55 AM,21.6,5.0,49,30.08,10.0,NW,8.1,17.3,N/A,,Clear,310,2013-02-17 10:55:00
6:15 AM,22.1,4.8,48,30.08,10.0,WNW,9.2,17.3,N/A,,Clear,300,2013-02-17 11:15:00
6:35 AM,21.9,5.0,48,30.09,10.0,NW,13.8,19.6,N/A,,Clear,310,2013-02-17 11:35:00
6:55 AM,22.1,5.2,48,30.10,10.0,WNW,9.2,19.6,N/A,,Clear,300,2013-02-17 11:55:00
7:15 AM,22.1,5.2,48,30.10,10.0,NW,11.5,20.7,N/A,,Clear,320,2013-02-17 12:15:00
7:35 AM,22.1,5.7,49,30.11,10.0,NW,13.8,21.9,N/A,,Clear,310,2013-02-17 12:35:00
7:55 AM,22.1,6.1,50,30.11,10.0,WNW,11.5,16.1,N/A,,Clear,300,2013-02-17 12:55:00
8:15 AM,23.0,6.6,50,30.12,10.0,WNW,9.2,17.3,N/A,,Clear,300,2013-02-17 13:15:00
8:35 AM,23.7,7.0,49,30.14,10.0,WNW,9.2,-,N/A,,Clear,290,2013-02-17 13:35:00
8:55 AM,24.4,6.8,47,30.14,10.0,WNW,9.2,16.1,N/A,,Clear,300,2013-02-17 13:55:00
9:15 AM,25.0,7.5,48,30.15,10.0,NNW,6.9,10.4,N/A,,Clear,330,2013-02-17 14:15:00
9:35 AM,26.1,7.5,46,30.15,10.0,WNW,10.4,18.4,N/A,,Clear,300,2013-02-17 14:35:00
9:55 AM,26.6,7.0,43,30.15,10.0,WNW,10.4,20.7,N/A,,Clear,300,2013-02-17 14:55:00
10:15 AM,27.9,7.3,42,30.15,10.0,WNW,11.5,25.3,N/A,,Clear,300,2013-02-17 15:15:00
10:35 AM,28.6,6.6,39,30.15,10.0,NW,8.1,23.0,N/A,,Clear,310,2013-02-17 15:35:00
10:55 AM,29.3,6.3,38,30.15,10.0,NW,11.5,20.7,N/A,,Clear,310,2013-02-17 15:55:00
11:15 AM,30.2,5.4,35,30.16,10.0,NW,11.5,21.9,N/A,,Clear,320,2013-02-17 16:15:00
11:35 AM,30.9,6.8,36,30.16,10.0,WNW,12.7,23.0,N/A,,Clear,300,2013-02-17 16:35:00
11:55 AM,31.8,3.9,31,30.16,10.0,NW,12.7,23.0,N/A,,Clear,320,2013-02-17 16:55:00
12:15 PM,32.4,4.3,31,30.15,10.0,NW,9.2,28.8,N/A,,Clear,310,2013-02-17 17:15:00
12:35 PM,32.5,2.8,28,30.15,10.0,NW,9.2,26.5,N/A,,Clear,310,2013-02-17 17:35:00
12:55 PM,33.4,2.8,27,30.14,10.0,West,10.4,23.0,N/A,,Clear,260,2013-02-17 17:55:00
1:15 PM,34.3,3.9,28,30.14,10.0,West,13.8,20.7,N/A,,Clear,280,2013-02-17 18:15:00
1:35 PM,34.3,2.5,26,30.14,10.0,West,13.8,19.6,N/A,,Clear,280,2013-02-17 18:35:00
1:55 PM,34.0,2.3,26,30.14,10.0,WNW,15.0,25.3,N/A,,Clear,290,2013-02-17 18:55:00
2:15 PM,34.5,2.7,26,30.14,10.0,NW,17.3,24.2,N/A,,Clear,310,2013-02-17 19:15:00
2:35 PM,34.9,2.1,25,30.14,10.0,WNW,12.7,21.9,N/A,,Clear,300,2013-02-17 19:35:00
2:55 PM,36.0,3.0,25,30.14,10.0,WNW,9.2,20.7,N/A,,Clear,300,2013-02-17 19:55:00
3:15 PM,35.1,1.9,25,30.13,10.0,NW,12.7,17.3,N/A,,Clear,320,2013-02-17 20:15:00
3:35 PM,35.4,2.8,25,30.13,10.0,NNW,8.1,19.6,N/A,,Clear,330,2013-02-17 20:35:00
3:55 PM,36.3,4.3,26,30.13,10.0,NNW,6.9,-,N/A,,Clear,340,2013-02-17 20:55:00
4:15 PM,36.5,4.1,26,30.13,10.0,NNW,4.6,-,N/A,,Clear,330,2013-02-17 21:15:00
4:35 PM,35.8,3.0,25,30.14,10.0,NNW,10.4,17.3,N/A,,Clear,340,2013-02-17 21:35:00
4:55 PM,35.8,3.2,25,30.14,10.0,NW,9.2,-,N/A,,Clear,310,2013-02-17 21:55:00
5:15 PM,35.6,4.1,27,30.14,10.0,NW,6.9,-,N/A,,Clear,320,2013-02-17 22:15:00
5:35 PM,34.7,4.5,28,30.15,10.0,NW,9.2,16.1,N/A,,Clear,310,2013-02-17 22:35:00
5:55 PM,34.0,4.6,29,30.16,10.0,WNW,6.9,-,N/A,,Clear,300,2013-02-17 22:55:00
6:15 PM,33.1,4.8,30,30.17,10.0,NW,4.6,-,N/A,,Clear,320,2013-02-17 23:15:00
6:35 PM,32.5,5.0,31,30.17,10.0,NNW,3.5,-,N/A,,Clear,340,2013-02-17 23:35:00
6:55 PM,29.5,11.1,46,30.18,10.0,Calm,Calm,-,N/A,,Clear,0,2013-02-17 23:55:00
7:15 PM,26.8,14.2,59,30.18,10.0,Calm,Calm,-,N/A,,Clear,0,2013-02-18 00:15:00
7:35 PM,26.2,14.4,61,30.18,10.0,Calm,Calm,-,N/A,,Clear,0,2013-02-18 00:35:00
7:55 PM,25.0,15.4,67,30.19,10.0,WSW,3.5,-,N/A,,Clear,250,2013-02-18 00:55:00
8:15 PM,23.7,15.8,72,30.19,10.0,Calm,Calm,-,N/A,,Clear,0,2013-02-18 01:15:00
8:35 PM,23.7,15.8,72,30.20,10.0,Calm,Calm,-,N/A,,Clear,0,2013-02-18 01:35:00
8:55 PM,22.3,15.6,76,30.20,10.0,Calm,Calm,-,N/A,,Clear,0,2013-02-18 01:55:00
9:15 PM,21.6,14.9,76,30.21,10.0,Calm,Calm,-,N/A,,Clear,0,2013-02-18 02:15:00
9:35 PM,21.6,16.5,81,30.22,10.0,Calm,Calm,-,N/A,,Clear,0,2013-02-18 02:35:00
9:55 PM,20.5,15.6,81,30.23,10.0,Calm,Calm,-,N/A,,Clear,0,2013-02-18 02:55:00
10:15 PM,20.1,14.9,80,30.22,10.0,Calm,Calm,-,N/A,,Clear,0,2013-02-18 03:15:00
10:35 PM,19.8,15.8,85,30.22,10.0,Calm,Calm,-,N/A,,Clear,0,2013-02-18 03:35:00
10:55 PM,19.9,15.3,82,30.23,10.0,Calm,Calm,-,N/A,,Clear,0,2013-02-18 03:55:00
11:15 PM,19.0,15.4,86,30.22,10.0,Calm,Calm,-,N/A,,Clear,0,2013-02-18 04:15:00
11:35 PM,18.7,14.7,85,30.23,10.0,Calm,Calm,-,N/A,,Clear,0,2013-02-18 04:35:00
11:55 PM,18.5,15.3,87,30.22,10.0,Calm,Calm,-,N/A,,Clear,0,2013-02-18 04:55:00